Home   Weather   Hebron   Past weeks

Flag for Palestinian Territories Past Weather in Hebron, West Bank, Palestinian Territories — Yesterday and Last 2 Weeks

Now
55 °F

Passing clouds.


Feels Like: 55 °F
Forecast: 49 / 74 °F
Wind: 3 mph from North

Location: Ben Gurion International Airport

Current Time: Apr 25, 2017 at 4:11:59 am

Latest Report: Apr 25, 2017 at 3:20 am


Visibility: N/A

Pressure: 30.07 "Hg (27.03 "Hg at 894m altitude)

Humidity: 72%

Dew Point: 46 °F

Location of HebronLocation

Past Weather in Hebron — Graph

°F

Hebron Temperature Yesterday

Maximum temperature yesterday: 70 °F (at 12:20 pm)
Minimum temperature yesterday: 61 °F (at 1:50 am)
Average temperature yesterday: 65 °F

High & Low Weather Summary for the Past Weeks

 TemperatureHumidityPressure
High102 °F (Apr 22, 12:20 pm)88% (Apr 14, 3:20 am)30.12 "Hg (Apr 14, 3:20 am)
Low54 °F (Apr 10, 5:50 am)8% (Apr 22, 11:20 am)29.65 "Hg (Apr 13, 1:50 pm)
Average69 °F55%29.95 "Hg
* Reported Apr 10 2:20 am — Apr 25 2:50 am, Hebron, Weather by CustomWeather, © 2017

Note: Actual official high and low records may vary slightly from our data, if they occured in-between our weather recording intervals... More about our weather records

Advertising

Hebron Weather History for the Previous 24 Hours

Scroll right to see more
 ConditionsComfort  
Time TempWeatherWind HumidityBarometerVisibility
2:50 am
Tue, Apr 25
57 °FPassing clouds.2 mph72%30.07 "HgN/A
1:50 am59 °FPassing clouds.2 mph68%30.09 "HgN/A
1:20 am59 °FPassing clouds.3 mph68%30.09 "HgN/A
12:50 am59 °FPassing clouds.5 mph68%30.09 "HgN/A
12:20 am61 °FPassing clouds.3 mph63%30.09 "HgN/A
11:50 pm
Mon, Apr 24
63 °FPassing clouds.3 mph59%30.09 "HgN/A
10:50 pm63 °FPassing clouds.5 mph59%30.12 "HgN/A
10:20 pm63 °FPassing clouds.7 mph59%30.12 "HgN/A
9:50 pm64 °FPassing clouds.8 mph60%30.12 "HgN/A
9:20 pm64 °FPassing clouds.6 mph56%30.09 "HgN/A
8:50 pm64 °FPassing clouds.6 mph56%30.09 "HgN/A
8:20 pm64 °FPassing clouds.7 mph56%30.09 "HgN/A
7:50 pm64 °FPassing clouds.9 mph56%30.09 "HgN/A
7:20 pm64 °FPassing clouds.10 mph56%30.07 "HgN/A
6:50 pm64 °FPassing clouds.9 mph56%30.07 "HgN/A
6:20 pm66 °FPassing clouds.9 mph52%30.07 "HgN/A
5:50 pm66 °FPassing clouds.10 mph49%30.07 "HgN/A
5:20 pm66 °FPassing clouds.9 mph49%30.07 "HgN/A
4:50 pm68 °FPassing clouds.10 mph46%30.07 "HgN/A
4:20 pm68 °FPassing clouds.14 mph46%30.07 "HgN/A
3:50 pm68 °FPassing clouds.14 mph46%30.07 "HgN/A
3:20 pm68 °FPassing clouds.13 mph46%30.07 "HgN/A
2:50 pm70 °FScattered clouds.12 mph46%30.07 "HgN/A
2:20 pm68 °FScattered clouds.12 mph49%30.07 "HgN/A
1:50 pm68 °FScattered clouds.12 mph49%30.09 "HgN/A
1:20 pm68 °FPassing clouds.13 mph49%30.09 "HgN/A
12:50 pm70 °FPassing clouds.12 mph38%30.09 "HgN/A
12:20 pm70 °FPassing clouds.8 mph40%30.09 "HgN/A
11:50 am66 °FPassing clouds.13 mph43%30.09 "HgN/A
11:20 am68 °FScattered clouds.9 mph40%30.09 "HgN/A
10:50 am68 °FScattered clouds.9 mph43%30.09 "HgN/A
10:20 am68 °FScattered clouds.8 mph40%30.09 "HgN/A
9:50 am68 °FScattered clouds.8 mph40%30.09 "HgN/A
9:20 am66 °FScattered clouds.9 mph43%30.09 "HgN/A
8:50 am64 °FPartly sunny.7 mph46%30.09 "HgN/A
8:20 am64 °FPartly sunny.8 mph46%30.09 "HgN/A
7:50 am64 °FPartly sunny.6 mph46%30.09 "HgN/A
7:20 am63 °FBroken clouds.8 mph52%30.07 "HgN/A
6:50 am63 °FBroken clouds.10 mph56%30.07 "HgN/A
6:20 am63 °FBroken clouds.9 mph56%30.07 "HgN/A
5:50 am63 °FPassing clouds.5 mph56%30.07 "HgN/A
5:20 am63 °FPassing clouds.6 mph56%30.07 "HgN/A
4:50 am63 °FPassing clouds.7 mph52%30.07 "HgN/A
4:20 am63 °FPassing clouds.6 mph52%30.07 "HgN/A
Weather by CustomWeather, © 2017

See weather overviewHow to use our weather pages